M I D A S
Marine Information and Data Acquisition System
Tripno 857 of the Zeeleeuw from 2005-03-07 07:35:17 to 2005-03-07 18:04:43
Back to CruiseResearch ActivitiesStationsMapUnderway DataData graphs

EquipmentUnitsComments
TimeDGPSUTC
LatitudeDGPSDM.mWGS84
LongitudeDGPSDM.mWGS84
SpeedMeteo Stationm/sRelative wind speed
DirectionMeteo StationdegRelative wind direction
TemperatureMeteo Stationdeg CelciusAir temperature
PressureMeteo StationPaAtmospheric pressure
HumidityMeteo Station%Relative humidity
Missing or incorrect values are displayed as -999
Metereological data collected by the RV Zeeleeuw from 2005-03-07 07:28:23 to 2005-03-07 18:04:00
Time Latitude Longitude Speed Direction Temperature Pressure Humidity
2005-03-07 07:29 51°13.61 2°56.053 8.6 222 3.7 102480 92
2005-03-07 07:30 51°13.641 2°55.95 8.5 200 3.8 102490 93
2005-03-07 07:31 51°13.68 2°55.818 10.6 218 3.7 102490 93
2005-03-07 07:32 51°13.695 2°55.753 4.5 262 3.7 102490 94
2005-03-07 07:33 51°13.713 2°55.785 6.7 313 3.7 102460 94
2005-03-07 07:34 51°13.717 2°55.777 9 358 3.7 102470 94
2005-03-07 07:35 51°13.779 2°55.683 10.9 12 3.7 102460 94
2005-03-07 07:36 51°13.896 2°55.576 10.3 1 3.7 102460 94
2005-03-07 07:37 51°14.03 2°55.486 11.7 357 3.8 102450 94
2005-03-07 07:38 51°14.151 2°55.398 12.6 -999 3.8 102480 94
2005-03-07 07:39 51°14.269 2°55.245 13.8 15 3.8 102460 94
2005-03-07 07:40 51°14.366 2°55.048 12.6 15 3.8 102450 94
2005-03-07 07:41 51°14.5 2°54.908 14.6 11 3.8 102460 94
2005-03-07 07:42 51°14.658 2°54.758 14.7 5 3.8 102450 94
2005-03-07 07:43 51°14.836 2°54.6 14.9 8 3.9 102440 94
2005-03-07 07:44 51°15.018 2°54.426 15.6 7 3.9 102450 94
2005-03-07 07:45 51°15.204 2°54.257 14 8 3.9 102440 94
2005-03-07 07:46 51°15.387 2°54.09 15.3 5 3.9 102430 93
2005-03-07 07:47 51°15.568 2°53.915 14.3 6 3.9 102440 93
2005-03-07 07:48 51°15.753 2°53.751 15.9 8 4 102430 93
2005-03-07 07:49 51°15.94 2°53.589 18.9 10 4 102430 93
2005-03-07 07:50 51°16.122 2°53.432 15.5 12 4 102430 93
2005-03-07 07:51 51°16.305 2°53.276 13.5 11 4 102430 93
2005-03-07 07:52 51°16.489 2°53.117 15.8 9 4 102430 93
2005-03-07 07:53 51°16.672 2°52.956 17.5 9 4 102430 93
2005-03-07 07:54 51°16.847 2°52.805 16.6 6 4 102420 93
2005-03-07 07:55 51°17.039 2°52.674 16.8 5 3.9 102430 94
2005-03-07 07:56 51°17.232 2°52.547 17 9 3.9 102440 95
2005-03-07 07:57 51°17.427 2°52.416 17 4 3.9 102440 95
2005-03-07 07:58 51°17.632 2°52.339 17.1 357 3.9 102430 95
2005-03-07 07:59 51°17.838 2°52.283 15.8 356 4 102430 95
2005-03-07 08:00 51°18.047 2°52.279 16.4 344 4 102420 94
2005-03-07 08:01 51°18.249 2°52.407 16.2 335 4 102420 94
2005-03-07 08:02 51°18.452 2°52.546 16 346 4 102420 94
2005-03-07 08:03 51°18.654 2°52.676 16.2 339 4.1 102440 94
2005-03-07 08:04 51°18.852 2°52.806 14 341 4.1 102430 94
2005-03-07 08:05 51°19.051 2°52.941 15.9 335 4.1 102420 94
2005-03-07 08:06 51°19.248 2°53.08 18 337 4.1 102440 94
2005-03-07 08:07 51°19.442 2°53.216 16.8 343 4.1 102440 94
2005-03-07 08:08 51°19.641 2°53.354 16.5 337 4.1 102430 94
2005-03-07 08:09 51°19.834 2°53.484 15.4 341 4.1 102440 94
2005-03-07 08:10 51°20.026 2°53.621 15.5 333 4.1 102450 94
2005-03-07 08:11 51°20.225 2°53.758 15.8 342 4.1 102440 93
2005-03-07 08:12 51°20.426 2°53.896 17 336 4.1 102420 93
2005-03-07 08:13 51°20.62 2°54.032 14.5 341 4.1 102420 93
2005-03-07 08:14 51°20.822 2°54.171 14.8 338 4.1 102430 93
2005-03-07 08:15 51°21.014 2°54.312 14.9 334 4.1 102430 93
2005-03-07 08:16 51°21.209 2°54.465 16.7 336 4.2 102440 93
2005-03-07 08:17 51°21.407 2°54.626 15.2 333 4.2 102420 93
2005-03-07 08:18 51°21.602 2°54.784 15.4 332 4.2 102410 93
2005-03-07 08:19 51°21.8 2°54.941 16.4 339 4.2 102420 93
2005-03-07 08:20 51°21.998 2°55.09 14 338 4.2 102430 92
2005-03-07 08:21 51°22.198 2°55.228 15.7 338 4.2 102410 92
2005-03-07 08:22 51°22.399 2°55.37 15.8 337 4.2 102420 92
2005-03-07 08:23 51°22.593 2°55.516 15.9 338 4.2 102430 92
2005-03-07 08:24 51°22.789 2°55.661 15.2 340 4.3 102430 92
2005-03-07 08:25 51°22.99 2°55.801 17 335 4.3 102400 91
2005-03-07 08:26 51°23.19 2°55.94 16.1 336 4.3 102400 91
2005-03-07 08:27 51°23.383 2°56.08 13.7 336 4.3 102410 91
2005-03-07 08:28 51°23.585 2°56.222 16.6 331 4.3 102410 91
2005-03-07 08:29 51°23.786 2°56.366 14 334 4.3 102400 91
2005-03-07 08:30 51°23.986 2°56.513 14.8 333 4.3 102430 91
2005-03-07 08:31 51°24.185 2°56.654 16 331 4.3 102390 91
2005-03-07 08:32 51°24.381 2°56.8 13.9 337 4.4 102400 90
2005-03-07 08:33 51°24.578 2°56.947 15.5 334 4.4 102400 90
2005-03-07 08:34 51°24.778 2°57.083 14.3 331 4.3 102390 91
2005-03-07 08:35 51°24.982 2°57.219 15.7 339 4.3 102430 91
2005-03-07 08:36 51°25.18 2°57.356 16.8 340 4.3 102430 91
2005-03-07 08:37 51°25.388 2°57.492 16.4 340 4.3 102400 91
2005-03-07 08:38 51°25.585 2°57.624 16.7 337 4.4 102390 91
2005-03-07 08:39 51°25.788 2°57.758 18.9 331 4.4 102430 91
2005-03-07 08:40 51°25.992 2°57.891 14.8 330 4.4 102410 91
2005-03-07 08:41 51°26.193 2°58.024 17.4 333 4.4 102380 91
2005-03-07 08:42 51°26.398 2°58.158 13.6 334 4.4 102400 91
2005-03-07 08:43 51°26.6 2°58.291 17.1 328 4.4 102370 91
2005-03-07 08:44 51°26.793 2°58.426 16.1 332 4.4 102390 90
2005-03-07 08:45 51°26.993 2°58.554 17.3 329 4.4 102410 90
2005-03-07 08:46 51°27.19 2°58.707 17.6 325 4.4 102390 90
2005-03-07 08:47 51°27.378 2°58.869 18.7 330 4.4 102390 90
2005-03-07 08:48 51°27.546 2°59.084 16.6 317 4.4 102390 90
2005-03-07 08:49 51°27.692 2°59.359 13.4 313 4.4 102420 90
2005-03-07 08:50 51°27.836 2°59.649 12.6 313 4.4 102400 90
2005-03-07 08:51 51°27.978 2°59.936 12.7 228 4.4 102400 90
2005-03-07 08:52 51°28.112 3°0.231 14.6 314 4.4 102390 90
2005-03-07 08:53 51°28.244 3°0.526 13.5 310 4.4 102410 90
2005-03-07 08:54 51°28.377 3°0.82 14.4 310 4.4 102410 90
2005-03-07 08:55 51°28.514 3°1.112 12.7 318 4.5 102430 91
2005-03-07 08:56 51°28.648 3°1.408 13.7 309 4.5 102420 90
2005-03-07 08:57 51°28.784 3°1.696 13.7 42 4.5 102410 90
2005-03-07 08:58 51°28.927 3°2 12 43 4.5 102420 90
2005-03-07 08:59 51°29.066 3°2.292 11.6 41 4.5 102400 91
2005-03-07 09:00 51°29.205 3°2.591 12.7 316 4.5 102420 91
2005-03-07 09:01 51°29.343 3°2.885 12.5 316 4.5 102420 91
2005-03-07 09:02 51°29.483 3°3.179 13.3 42 4.4 102420 91
2005-03-07 09:03 51°29.621 3°3.476 14.4 315 4.4 102400 91
2005-03-07 09:04 51°29.76 3°3.77 13.9 322 4.4 102400 90
2005-03-07 09:05 51°29.899 3°4.067 12.6 226 4.5 102400 90
2005-03-07 09:06 51°30.041 3°4.368 13.5 313 4.4 102410 90
2005-03-07 09:07 51°30.181 3°4.659 13.7 312 4.5 102400 91
2005-03-07 09:08 51°30.317 3°4.948 12.6 315 4.5 102410 91
2005-03-07 09:09 51°30.458 3°5.245 12.7 311 4.4 102410 91
2005-03-07 09:10 51°30.592 3°5.534 12.3 311 4.4 102390 91
2005-03-07 09:11 51°30.727 3°5.825 11.9 44 4.4 102400 91
2005-03-07 09:12 51°30.868 3°6.123 10.8 316 4.4 102410 91
2005-03-07 09:13 51°31.004 3°6.416 13.6 228 4.4 102400 92
2005-03-07 09:14 51°31.143 3°6.703 11 310 4.4 102420 92
2005-03-07 09:15 51°31.282 3°6.998 11.7 316 4.4 102390 92
2005-03-07 09:16 51°31.423 3°7.292 11.9 40 4.4 102400 92
2005-03-07 09:17 51°31.558 3°7.584 14.3 310 4.4 102400 92
2005-03-07 09:18 51°31.692 3°7.876 14 229 4.4 102390 92
2005-03-07 09:19 51°31.828 3°8.167 13.3 321 4.4 102380 93
2005-03-07 09:20 51°31.973 3°8.467 12.2 334 4.4 102390 93
2005-03-07 09:21 51°32.112 3°8.757 12.4 329 4.3 102400 92
2005-03-07 09:22 51°32.253 3°9.054 12.6 337 4.1 102390 91
2005-03-07 09:23 51°32.389 3°9.354 15.6 332 4 102380 92
2005-03-07 09:24 51°32.523 3°9.645 14.2 337 4 102390 90
2005-03-07 09:25 51°32.661 3°9.94 13.3 343 3.9 102390 90
2005-03-07 09:26 51°32.799 3°10.243 13.5 333 3.9 102380 90
2005-03-07 09:27 51°32.94 3°10.542 14.8 333 4 102380 90
2005-03-07 09:28 51°33.081 3°10.841 14 329 4.1 102380 90
2005-03-07 09:29 51°33.224 3°11.143 13.8 338 4.2 102380 90
2005-03-07 09:30 51°33.368 3°11.444 15.6 336 4.3 102380 90
2005-03-07 09:31 51°33.508 3°11.733 12.5 338 4.3 102370 90
2005-03-07 09:32 51°33.651 3°12.032 11.7 329 4.3 102370 90
2005-03-07 09:33 51°33.796 3°12.331 12.5 327 4.4 102370 90
2005-03-07 09:34 51°33.942 3°12.632 11 322 4.4 102380 91
2005-03-07 09:35 51°34.088 3°12.933 11.6 322 4.4 102380 91
2005-03-07 09:36 51°34.232 3°13.237 12.7 319 4.5 102370 91
2005-03-07 09:37 51°34.375 3°13.535 14.5 318 4.5 102370 91
2005-03-07 09:38 51°34.522 3°13.842 12.1 326 4.5 102380 92
2005-03-07 09:39 51°34.667 3°14.15 12.7 321 4.6 102370 91
2005-03-07 09:40 51°34.81 3°14.449 14.9 324 4.6 102370 91
2005-03-07 09:41 51°34.953 3°14.758 13.7 319 4.6 102360 91
2005-03-07 09:42 51°35.097 3°15.056 15.8 317 4.6 102360 91
2005-03-07 09:43 51°35.236 3°15.354 15.1 318 4.6 102350 90
2005-03-07 09:44 51°35.381 3°15.65 16.1 320 4.5 102370 87
2005-03-07 09:45 51°35.519 3°15.945 15 324 4.5 102370 86
2005-03-07 09:46 51°35.663 3°16.242 12.8 326 4.5 102370 86
2005-03-07 09:47 51°35.809 3°16.538 15.5 326 4.5 102380 85
2005-03-07 09:48 51°35.956 3°16.838 12.6 327 4.5 102370 85
2005-03-07 09:49 51°36.105 3°17.14 11.7 332 4.4 102380 84
2005-03-07 09:50 51°36.256 3°17.441 10.5 337 4.3 102390 84
2005-03-07 09:51 51°36.405 3°17.741 9.6 330 4.3 102380 84
2005-03-07 09:52 51°36.554 3°18.047 12.2 330 4.3 102370 84
2005-03-07 09:53 51°36.703 3°18.345 11.3 332 4.3 102380 85
2005-03-07 09:54 51°36.855 3°18.642 11.6 334 4.3 102380 85
2005-03-07 09:55 51°37.008 3°18.942 11.9 332 4.3 102380 85
2005-03-07 09:56 51°37.157 3°19.246 12.1 332 4.3 102370 85
2005-03-07 09:57 51°37.304 3°19.542 11.7 328 4.3 102360 86
2005-03-07 09:58 51°37.45 3°19.841 11.8 323 4.4 102380 87
2005-03-07 09:59 51°37.597 3°20.141 14.2 318 4.5 102370 88
2005-03-07 10:00 51°37.745 3°20.438 14 321 4.5 102370 89
2005-03-07 10:01 51°37.895 3°20.735 17.3 325 4.6 102360 89
2005-03-07 10:02 51°38.044 3°21.032 14.3 330 4.4 102360 86
2005-03-07 10:03 51°38.189 3°21.324 15.5 329 4.3 102360 86
2005-03-07 10:04 51°38.34 3°21.62 13.3 331 4.2 102360 86
2005-03-07 10:05 51°38.492 3°21.913 13.7 329 4.2 102370 86
2005-03-07 10:06 51°38.642 3°22.214 14.9 320 4.2 102360 87
2005-03-07 10:07 51°38.787 3°22.511 15.7 327 4.2 102360 87
2005-03-07 10:08 51°38.938 3°22.811 14 320 4.3 102360 87
2005-03-07 10:09 51°39.083 3°23.109 13.1 320 4.3 102370 87
2005-03-07 10:10 51°39.231 3°23.404 12.3 327 4.3 102350 86
2005-03-07 10:11 51°39.377 3°23.706 12.8 329 4.4 102360 86
2005-03-07 10:12 51°39.523 3°24.002 12.9 328 4.4 102360 86
2005-03-07 10:13 51°39.672 3°24.302 12.4 326 4.4 102360 86
2005-03-07 10:14 51°39.818 3°24.596 10.8 328 4.4 102360 86
2005-03-07 10:15 51°39.965 3°24.892 12.2 328 4.4 102360 86
2005-03-07 10:16 51°40.11 3°25.187 12.3 318 4.5 102370 86
2005-03-07 10:17 51°40.261 3°25.486 11.2 326 4.5 102360 86
2005-03-07 10:18 51°40.41 3°25.777 12.3 319 4.5 102360 86
2005-03-07 10:19 51°40.562 3°26.075 11.6 324 4.5 102360 86
2005-03-07 10:20 51°40.732 3°26.333 12.4 328 4.6 102360 85
2005-03-07 10:21 51°40.908 3°26.575 13.3 330 4.6 102360 85
2005-03-07 10:22 51°41.083 3°26.81 13.3 333 4.6 102360 84
2005-03-07 10:23 51°41.265 3°27.052 11.9 332 4.7 102350 84
2005-03-07 10:24 51°41.446 3°27.295 13.2 329 4.7 102360 83
2005-03-07 10:25 51°41.626 3°27.536 13.2 332 4.8 102360 83
2005-03-07 10:26 51°41.803 3°27.771 13.3 330 4.8 102350 83
2005-03-07 10:27 51°41.985 3°28.014 12.9 334 4.9 102360 83
2005-03-07 10:28 51°42.168 3°28.253 13.2 333 4.9 102360 82
2005-03-07 10:29 51°42.354 3°28.483 13.1 336 4.9 102350 82
2005-03-07 10:30 51°42.541 3°28.713 12.9 339 4.9 102360 82
2005-03-07 10:31 51°42.732 3°28.943 13.2 339 4.9 102360 82
2005-03-07 10:32 51°42.925 3°29.161 12.9 336 4.9 102350 82
2005-03-07 10:33 51°43.114 3°29.381 12.3 338 4.9 102340 82
2005-03-07 10:34 51°43.306 3°29.601 13 335 4.9 102350 83
2005-03-07 10:35 51°43.497 3°29.818 14.1 336 4.9 102360 83
2005-03-07 10:36 51°43.69 3°30.045 12.5 333 4.9 102340 83
2005-03-07 10:37 51°43.874 3°30.281 12 334 4.8 102350 84
2005-03-07 10:38 51°44.064 3°30.523 12.2 330 4.8 102360 84
2005-03-07 10:39 51°44.248 3°30.764 12.9 332 4.8 102350 84
2005-03-07 10:40 51°44.431 3°31.007 14.6 332 4.8 102350 84
2005-03-07 10:41 51°44.616 3°31.255 11.9 330 4.8 102380 84
2005-03-07 10:42 51°44.778 3°31.547 11.5 327 4.8 102350 84
2005-03-07 10:43 51°44.906 3°31.874 10.9 42 4.8 102350 85
2005-03-07 10:44 51°45 3°32.237 10.1 315 4.8 102340 85
2005-03-07 10:45 51°45.057 3°32.625 9.8 310 4.8 102350 85
2005-03-07 10:46 51°45.117 3°33.009 9.8 230 4.9 102360 86
2005-03-07 10:47 51°45.178 3°33.397 8.9 315 4.9 102350 86
2005-03-07 10:48 51°45.239 3°33.769 8.5 228 4.9 102360 86
2005-03-07 10:49 51°45.294 3°34.149 9.9 311 4.8 102360 86
2005-03-07 10:50 51°45.354 3°34.524 9.1 310 4.9 102360 87
2005-03-07 10:51 51°45.415 3°34.896 7.8 231 4.9 102350 87
2005-03-07 10:52 51°45.477 3°35.274 8 312 4.9 102350 87
2005-03-07 10:53 51°45.541 3°35.652 9.3 311 4.9 102350 87
2005-03-07 10:54 51°45.604 3°36.019 8.2 231 4.8 102350 87
2005-03-07 10:55 51°45.671 3°36.392 8.2 310 4.8 102350 88
2005-03-07 10:56 51°45.728 3°36.687 7 298 4.8 102380 88
2005-03-07 10:57 51°45.762 3°36.84 3.6 258 4.9 102380 88
2005-03-07 10:58 51°45.766 3°36.911 5.1 202 4.8 102390 88
2005-03-07 10:59 51°45.775 3°36.942 3.1 188 5 102390 89
2005-03-07 11:00 51°45.777 3°36.976 5.5 171 5.2 102390 88
2005-03-07 11:01 51°45.774 3°37.01 6.2 159 5 102390 87
2005-03-07 11:02 51°45.765 3°37.04 5.1 147 4.9 102400 88
2005-03-07 11:03 51°45.722 3°37.05 5.7 117 4.8 102400 89
2005-03-07 11:04 51°45.666 3°37.021 6.3 94 4.8 102400 89
2005-03-07 11:05 51°45.624 3°36.969 7 84 4.8 102380 89
2005-03-07 11:06 51°45.601 3°36.903 7.9 76 4.7 102380 90
2005-03-07 11:07 51°45.583 3°36.843 7.2 82 4.7 102380 90
2005-03-07 11:08 51°45.555 3°36.782 6.5 81 4.7 102380 90
2005-03-07 11:09 51°45.525 3°36.711 7.9 82 4.6 102380 91
2005-03-07 11:10 51°45.494 3°36.641 9.8 89 4.7 102380 91
2005-03-07 11:11 51°45.464 3°36.576 7.6 84 4.7 102390 91
2005-03-07 11:12 51°45.436 3°36.51 7.9 88 4.7 102380 91
2005-03-07 11:13 51°45.406 3°36.442 7.8 89 4.6 102380 91
2005-03-07 11:14 51°45.378 3°36.377 8.1 83 4.7 102380 92
2005-03-07 11:15 51°45.349 3°36.309 6.7 79 4.7 102380 92
2005-03-07 11:16 51°45.322 3°36.243 7 80 4.7 102380 92
2005-03-07 11:17 51°45.295 3°36.176 6.8 80 4.7 102380 92
2005-03-07 11:18 51°45.266 3°36.112 4.4 75 4.7 102390 92
2005-03-07 11:19 51°45.237 3°36.043 6.2 76 4.6 102380 92
2005-03-07 11:20 51°45.21 3°35.972 6.8 78 4.6 102380 92
2005-03-07 11:21 51°45.182 3°35.905 7.6 84 4.6 102380 92
2005-03-07 11:22 51°45.153 3°35.839 5.5 80 4.7 102370 92
2005-03-07 11:23 51°45.127 3°35.77 7.9 84 4.6 102380 92
2005-03-07 11:24 51°45.098 3°35.7 7.5 83 4.7 102370 92
2005-03-07 11:25 51°45.07 3°35.631 8.7 86 4.7 102380 91
2005-03-07 11:26 51°45.043 3°35.561 8.8 90 4.7 102380 92
2005-03-07 11:27 51°45.015 3°35.491 6.9 82 4.7 102370 91
2005-03-07 11:28 51°44.985 3°35.425 9.8 96 4.7 102380 91
2005-03-07 11:29 51°44.949 3°35.366 8.3 84 4.7 102380 91
2005-03-07 11:30 51°44.913 3°35.305 9 94 4.6 102380 90
2005-03-07 11:31 51°44.878 3°35.245 8 91 4.6 102380 90
2005-03-07 11:32 51°44.843 3°35.185 8.8 96 4.6 102370 89
2005-03-07 11:33 51°44.81 3°35.126 7.6 94 4.6 102370 89
2005-03-07 11:34 51°44.776 3°35.065 8 99 4.6 102370 89
2005-03-07 11:35 51°44.739 3°35.003 8.3 91 4.5 102370 89
2005-03-07 11:36 51°44.707 3°34.942 7.8 95 4.5 102370 89
2005-03-07 11:37 51°44.672 3°34.876 7.7 96 4.5 102370 89
2005-03-07 11:38 51°44.638 3°34.812 9.3 86 4.5 102370 89
2005-03-07 11:39 51°44.616 3°34.742 8.8 82 4.5 102370 88
2005-03-07 11:40 51°44.6 3°34.667 8.1 82 4.5 102360 88
2005-03-07 11:41 51°44.598 3°34.589 9 65 4.4 102360 88
2005-03-07 11:42 51°44.616 3°34.517 9.8 46 4.4 102360 87
2005-03-07 11:43 51°44.638 3°34.479 9.4 43 4.4 102370 87
2005-03-07 11:44 51°44.652 3°34.468 8.4 50 4.4 102380 87
2005-03-07 11:45 51°44.665 3°34.462 8.2 41 4.4 102360 86
2005-03-07 11:46 51°44.701 3°34.449 8.1 347 4.5 102360 86
2005-03-07 11:47 51°44.774 3°34.482 9.7 332 4.6 102360 86
2005-03-07 11:48 51°44.846 3°34.548 8.9 323 4.7 102360 86
2005-03-07 11:49 51°44.907 3°34.625 8.1 308 4.7 102350 85
2005-03-07 11:50 51°44.954 3°34.721 7.7 289 4.8 102360 85
2005-03-07 11:51 51°44.985 3°34.803 9 281 4.8 102360 86
2005-03-07 11:52 51°45.012 3°34.875 6.6 284 4.8 102350 86
2005-03-07 11:53 51°45.035 3°34.941 7.3 282 4.8 102370 86
2005-03-07 11:54 51°45.056 3°35.003 7.6 268 4.8 102370 86
2005-03-07 11:55 51°45.074 3°35.064 9.7 270 4.8 102370 86
2005-03-07 11:56 51°45.092 3°35.127 7.7 269 4.8 102370 86
2005-03-07 11:57 51°45.11 3°35.191 8.1 265 4.8 102370 86
2005-03-07 11:58 51°45.128 3°35.257 6.1 273 4.8 102370 86
2005-03-07 11:59 51°45.145 3°35.324 7.6 265 4.8 102370 86
2005-03-07 12:00 51°45.162 3°35.396 6.5 264 4.8 102370 87
2005-03-07 12:01 51°45.18 3°35.47 6 262 4.8 102370 87
2005-03-07 12:02 51°45.197 3°35.544 5.9 264 4.9 102360 87
2005-03-07 12:03 51°45.216 3°35.619 6.5 263 4.9 102370 87
2005-03-07 12:04 51°45.234 3°35.694 4.4 260 4.9 102350 87
2005-03-07 12:05 51°45.253 3°35.769 6 264 4.9 102360 87
2005-03-07 12:06 51°45.271 3°35.843 6.1 268 4.9 102370 87
2005-03-07 12:07 51°45.289 3°35.918 5.3 263 4.9 102360 87
2005-03-07 12:08 51°45.31 3°35.992 8 271 4.9 102360 88
2005-03-07 12:09 51°45.332 3°36.063 6.2 265 4.9 102360 88
2005-03-07 12:10 51°45.354 3°36.136 7.5 271 4.9 102370 88
2005-03-07 12:11 51°45.377 3°36.206 6.2 264 4.9 102370 88
2005-03-07 12:12 51°45.4 3°36.282 6.3 270 4.9 102360 88
2005-03-07 12:13 51°45.423 3°36.354 6.7 270 4.9 102360 88
2005-03-07 12:14 51°45.449 3°36.425 8.7 269 4.9 102360 88
2005-03-07 12:15 51°45.476 3°36.496 5.7 269 5 102360 88
2005-03-07 12:16 51°45.501 3°36.567 5.2 262 4.9 102360 88
2005-03-07 12:17 51°45.527 3°36.638 6.2 267 4.9 102360 88
2005-03-07 12:18 51°45.553 3°36.709 8.3 269 4.9 102360 89
2005-03-07 12:19 51°45.579 3°36.781 8.1 276 4.9 102360 89
2005-03-07 12:20 51°45.603 3°36.852 6.8 270 4.9 102360 89
2005-03-07 12:21 51°45.628 3°36.923 7.7 271 5 102350 89
2005-03-07 12:22 51°45.652 3°36.993 7.5 268 5 102360 88
2005-03-07 12:23 51°45.675 3°37.06 6.3 265 4.9 102360 88
2005-03-07 12:24 51°45.693 3°37.133 4 256 4.9 102360 88
2005-03-07 12:25 51°45.705 3°37.207 5.1 251 4.9 102350 88
2005-03-07 12:26 51°45.72 3°37.282 6.2 262 4.9 102360 88
2005-03-07 12:27 51°45.738 3°37.357 5.1 260 4.9 102360 88
2005-03-07 12:28 51°45.758 3°37.43 3.3 256 4.9 102360 88
2005-03-07 12:29 51°45.77 3°37.495 5.4 254 4.9 102360 88
2005-03-07 12:30 51°45.784 3°37.551 5 262 4.8 102350 88
2005-03-07 12:31 51°45.798 3°37.594 6.2 265 4.8 102360 88
2005-03-07 12:32 51°45.813 3°37.63 5.5 264 4.8 102350 88
2005-03-07 12:33 51°45.829 3°37.665 6.1 278 4.9 102360 88
2005-03-07 12:34 51°45.846 3°37.697 6.1 287 4.9 102350 89
2005-03-07 12:35 51°45.864 3°37.73 6.2 289 4.9 102350 89
2005-03-07 12:36 51°45.889 3°37.766 5.5 299 4.9 102360 89
2005-03-07 12:37 51°45.922 3°37.81 5.7 308 5 102340 89
2005-03-07 12:38 51°45.955 3°37.849 6.9 302 5 102340 89
2005-03-07 12:39 51°45.986 3°37.888 5.4 298 5.1 102340 88
2005-03-07 12:40 51°46.015 3°37.925 5.8 300 5.1 102350 88
2005-03-07 12:41 51°46.045 3°37.962 6.8 303 5.1 102340 88
2005-03-07 12:42 51°46.073 3°37.999 6.7 304 5.1 102350 88
2005-03-07 12:43 51°46.104 3°38.034 7.1 308 5.1 102340 89
2005-03-07 12:44 51°46.131 3°38.067 7.4 307 5.1 102340 89
2005-03-07 12:45 51°46.163 3°38.1 7.6 312 5.1 102340 89
2005-03-07 12:46 51°46.192 3°38.133 6.8 304 5.1 102340 89
2005-03-07 12:47 51°46.222 3°38.164 6.5 313 5.1 102340 89
2005-03-07 12:48 51°46.252 3°38.196 7.6 304 5.1 102340 89
2005-03-07 12:49 51°46.28 3°38.232 7.1 308 5.1 102330 89
2005-03-07 12:50 51°46.307 3°38.264 5.9 303 5 102330 89
2005-03-07 12:51 51°46.329 3°38.291 7.6 300 5 102340 89
2005-03-07 12:52 51°46.345 3°38.318 6.1 294 5 102330 89
2005-03-07 12:53 51°46.365 3°38.359 7.2 277 5 102330 89
2005-03-07 12:54 51°46.354 3°38.471 3.5 130 4.9 102330 88
2005-03-07 12:55 51°46.272 3°38.413 6.1 71 4.9 102340 88
2005-03-07 12:56 51°46.162 3°38.21 8.9 52 4.8 102300 88
2005-03-07 12:57 51°46.043 3°37.948 11 55 4.7 102290 89
2005-03-07 12:58 51°45.938 3°37.658 10.1 55 4.6 102290 90
2005-03-07 12:59 51°45.834 3°37.372 11.4 54 4.5 102300 90
2005-03-07 13:00 51°45.737 3°37.088 10.5 53 4.5 102290 91
2005-03-07 13:01 51°45.644 3°36.791 11.3 58 4.5 102300 91
2005-03-07 13:02 51°45.548 3°36.493 9.8 51 4.5 102300 91
2005-03-07 13:03 51°45.457 3°36.189 10.4 57 4.5 102300 91
2005-03-07 13:04 51°45.369 3°35.889 11.4 55 4.4 102290 90
2005-03-07 13:05 51°45.28 3°35.586 9.4 45 4.4 102300 90
2005-03-07 13:06 51°45.191 3°35.286 11.3 55 4.5 102300 89
2005-03-07 13:07 51°45.106 3°34.991 11.1 52 4.5 102300 89
2005-03-07 13:08 51°45.018 3°34.685 11 59 4.5 102290 88
2005-03-07 13:09 51°44.929 3°34.378 11.3 60 4.5 102290 88
2005-03-07 13:10 51°44.82 3°34.095 11 57 4.4 102300 87
2005-03-07 13:11 51°44.695 3°33.843 9.9 68 4.5 102330 86
2005-03-07 13:12 51°44.553 3°33.615 9.5 59 4.4 102300 86
2005-03-07 13:13 51°44.382 3°33.436 8.3 63 4.5 102310 86
2005-03-07 13:14 51°44.209 3°33.253 8.3 72 4.4 102310 86
2005-03-07 13:15 51°44.04 3°33.077 7.4 74 4.4 102300 87
2005-03-07 13:16 51°43.874 3°32.915 6.6 74 4.4 102310 86
2005-03-07 13:17 51°43.693 3°32.787 6.3 73 4.4 102310 86
2005-03-07 13:18 51°43.507 3°32.694 6.2 66 4.3 102310 86
2005-03-07 13:19 51°43.317 3°32.624 5.2 78 4.3 102310 86
2005-03-07 13:20 51°43.128 3°32.554 4.7 78 4.3 102310 85
2005-03-07 13:21 51°42.938 3°32.51 4.3 92 4.3 102310 85
2005-03-07 13:22 51°42.75 3°32.603 1.9 84 4.3 102320 85
2005-03-07 13:23 51°42.569 3°32.717 1.7 93 4.4 102320 84
2005-03-07 13:24 51°42.394 3°32.837 1.9 89 4.4 102320 84
2005-03-07 13:25 51°42.217 3°32.949 2.9 84 4.4 102310 84
2005-03-07 13:26 51°42.036 3°33.073 2 81 4.4 102310 83
2005-03-07 13:27 51°41.856 3°33.188 1.6 82 4.5 102310 83
2005-03-07 13:28 51°41.681 3°33.321 1.7 65 4.5 102310 83
2005-03-07 13:29 51°41.499 3°33.453 3 83 4.5 102340 83
2005-03-07 13:30 51°41.321 3°33.58 2.7 86 4.5 102330 83
2005-03-07 13:31 51°41.136 3°33.708 3.3 73 4.5 102320 82
2005-03-07 13:32 51°40.945 3°33.819 3.3 71 4.5 102310 82
2005-03-07 13:33 51°40.751 3°33.893 3.7 82 4.5 102310 82
2005-03-07 13:34 51°40.555 3°33.96 4 78 4.4 102310 83
2005-03-07 13:35 51°40.355 3°33.963 6.9 74 4.4 102310 84
2005-03-07 13:36 51°40.191 3°33.74 10.6 52 4.4 102300 85
2005-03-07 13:37 51°40.044 3°33.479 10.7 59 4.3 102290 86
2005-03-07 13:38 51°39.889 3°33.225 9.8 54 4.3 102280 87
2005-03-07 13:39 51°39.735 3°32.963 10.1 53 4.3 102290 87
2005-03-07 13:40 51°39.579 3°32.697 10.4 46 4.2 102290 88
2005-03-07 13:41 51°39.476 3°32.37 11.4 41 4.2 102290 89
2005-03-07 13:42 51°39.381 3°32.045 10.7 40 4.2 102290 89
2005-03-07 13:43 51°39.281 3°31.712 11.3 41 4.2 102290 90
2005-03-07 13:44 51°39.171 3°31.397 10.1 41 4.2 102290 90
2005-03-07 13:45 51°39.017 3°31.142 8.1 55 4.1 102300 91
2005-03-07 13:46 51°38.817 3°31.012 7.1 64 4.1 102310 91
2005-03-07 13:47 51°38.61 3°30.904 7.4 61 4.1 102310 92
2005-03-07 13:48 51°38.406 3°30.789 7.2 62 4.1 102310 92
2005-03-07 13:49 51°38.2 3°30.67 7.1 59 4.1 102310 92
2005-03-07 13:50 51°37.997 3°30.55 6.5 60 4.1 102310 93
2005-03-07 13:51 51°37.791 3°30.428 7 62 4 102340 93
2005-03-07 13:52 51°37.588 3°30.296 7.8 58 4 102310 93
2005-03-07 13:53 51°37.389 3°30.173 7.1 52 4 102330 93
2005-03-07 13:54 51°37.184 3°30.045 7.1 57 4 102310 93
2005-03-07 13:55 51°37.031 3°29.926 7.1 85 4 102340 93
2005-03-07 13:56 51°36.993 3°29.88 5.2 121 4 102340 94
2005-03-07 13:57 51°36.992 3°29.861 5.2 117 4 102350 94
2005-03-07 13:58 51°36.98 3°29.826 6.4 92 4 102350 94
2005-03-07 13:59 51°36.954 3°29.739 5.8 80 4 102350 93
2005-03-07 14:00 51°36.936 3°29.637 5.6 69 4 102350 93
2005-03-07 14:01 51°36.928 3°29.538 5.8 57 4 102350 93
2005-03-07 14:02 51°36.926 3°29.442 7 60 4 102350 93
2005-03-07 14:03 51°36.925 3°29.359 7.6 67 4 102360 93
2005-03-07 14:04 51°36.924 3°29.287 5.5 78 4.1 102350 93
2005-03-07 14:05 51°36.918 3°29.209 6.7 74 4.1 102350 93
2005-03-07 14:06 51°36.906 3°29.121 7.5 80 4.1 102350 93
2005-03-07 14:07 51°36.886 3°29.033 5.8 81 4.1 102350 92
2005-03-07 14:08 51°36.863 3°28.946 7.8 88 4.1 102350 92
2005-03-07 14:09 51°36.84 3°28.857 7 79 4.1 102350 92
2005-03-07 14:10 51°36.822 3°28.768 7.9 81 4.1 102340 92
2005-03-07 14:11 51°36.805 3°28.684 7.5 87 4.1 102350 92
2005-03-07 14:12 51°36.791 3°28.603 6.3 83 4.1 102340 91
2005-03-07 14:13 51°36.775 3°28.526 7.3 85 4.1 102350 91
2005-03-07 14:14 51°36.762 3°28.447 7.5 84 4.1 102350 91
2005-03-07 14:15 51°36.747 3°28.366 6.6 95 4.1 102340 91
2005-03-07 14:16 51°36.731 3°28.283 6.4 89 4.1 102340 91
2005-03-07 14:17 51°36.714 3°28.207 7.1 86 4.1 102350 91
2005-03-07 14:18 51°36.698 3°28.128 7.2 92 4.2 102350 91
2005-03-07 14:19 51°36.684 3°28.051 6.1 83 4.2 102340 91
2005-03-07 14:20 51°36.669 3°27.974 7.3 84 4.2 102350 91
2005-03-07 14:21 51°36.653 3°27.899 6.9 86 4.1 102350 91
2005-03-07 14:22 51°36.636 3°27.823 6.3 81 4.2 102350 91
2005-03-07 14:23 51°36.621 3°27.747 6.9 83 4.1 102350 91
2005-03-07 14:24 51°36.605 3°27.671 6.3 79 4.1 102350 91
2005-03-07 14:25 51°36.59 3°27.594 6.5 77 4.1 102350 92
2005-03-07 14:26 51°36.576 3°27.519 6.7 81 4.1 102360 92
2005-03-07 14:27 51°36.56 3°27.443 6.6 84 4.1 102350 92
2005-03-07 14:28 51°36.545 3°27.369 6.9 77 4 102350 93
2005-03-07 14:29 51°36.531 3°27.291 6.3 76 4 102350 93
2005-03-07 14:30 51°36.517 3°27.213 6.1 70 4 102360 93
2005-03-07 14:31 51°36.505 3°27.134 6.5 64 4 102340 94
2005-03-07 14:32 51°36.502 3°27.05 8.3 54 4 102340 94
2005-03-07 14:33 51°36.507 3°26.972 8.4 41 4 102340 94
2005-03-07 14:34 51°36.519 3°26.895 8.6 37 4 102340 94
2005-03-07 14:35 51°36.539 3°26.824 8.2 24 4 102340 94
2005-03-07 14:36 51°36.559 3°26.773 8 13 4 102340 95
2005-03-07 14:37 51°36.572 3°26.74 6.8 9 4.1 102350 95
2005-03-07 14:38 51°36.581 3°26.717 6.3 3 4.1 102350 95
2005-03-07 14:39 51°36.586 3°26.703 6.6 350 4.1 102350 95
2005-03-07 14:40 51°36.607 3°26.677 7.8 356 4.1 102350 95
2005-03-07 14:41 51°36.656 3°26.586 6.8 14 4.1 102340 95
2005-03-07 14:42 51°36.687 3°26.497 7.9 24 4.1 102350 95
2005-03-07 14:43 51°36.71 3°26.412 7.3 28 4.1 102350 95
2005-03-07 14:44 51°36.736 3°26.328 7 25 4.1 102360 95
2005-03-07 14:45 51°36.759 3°26.25 7.1 28 4.1 102360 95
2005-03-07 14:46 51°36.777 3°26.181 7 36 4.1 102370 95
2005-03-07 14:47 51°36.79 3°26.119 6.7 48 4.1 102370 95
2005-03-07 14:48 51°36.794 3°26.058 7 69 4 102360 95
2005-03-07 14:49 51°36.79 3°26.003 7.3 84 4 102360 96
2005-03-07 14:50 51°36.782 3°25.937 5.9 80 4.1 102370 96
2005-03-07 14:51 51°36.768 3°25.867 6.8 85 4 102360 96
2005-03-07 14:52 51°36.75 3°25.802 5.4 95 4.1 102380 96
2005-03-07 14:53 51°36.727 3°25.739 5.8 106 4.1 102370 96
2005-03-07 14:54 51°36.699 3°25.689 5 118 4.1 102370 96
2005-03-07 14:55 51°36.668 3°25.642 5 119 4.1 102380 96
2005-03-07 14:56 51°36.636 3°25.595 5 119 4.1 102390 96
2005-03-07 14:57 51°36.607 3°25.539 5.5 106 4.2 102370 96
2005-03-07 14:58 51°36.58 3°25.479 6.2 105 4.2 102380 96
2005-03-07 14:59 51°36.555 3°25.417 6.4 100 4.2 102380 96
2005-03-07 15:00 51°36.532 3°25.35 6.2 98 4.2 102380 96
2005-03-07 15:01 51°36.507 3°25.292 5.6 112 4.2 102380 96
2005-03-07 15:02 51°36.478 3°25.237 5.4 111 4.3 102380 96
2005-03-07 15:03 51°36.446 3°25.189 5.5 120 4.3 102400 96
2005-03-07 15:04 51°36.413 3°25.139 5.7 117 4.3 102390 95
2005-03-07 15:05 51°36.382 3°25.09 5.5 115 4.3 102380 95
2005-03-07 15:06 51°36.353 3°25.036 6.9 111 4.3 102390 95
2005-03-07 15:07 51°36.325 3°24.979 6.1 108 4.3 102380 95
2005-03-07 15:08 51°36.298 3°24.918 6.5 107 4.3 102390 95
2005-03-07 15:09 51°36.272 3°24.858 6.7 108 4.4 102380 94
2005-03-07 15:10 51°36.248 3°24.794 7 97 4.4 102380 94
2005-03-07 15:11 51°36.226 3°24.726 6.6 98 4.4 102380 94
2005-03-07 15:12 51°36.208 3°24.657 7 82 4.4 102380 94
2005-03-07 15:13 51°36.198 3°24.576 7.8 67 4.4 102370 94
2005-03-07 15:14 51°36.189 3°24.491 7 69 4.4 102370 94
2005-03-07 15:15 51°36.183 3°24.402 8 58 4.4 102370 94
2005-03-07 15:16 51°36.181 3°24.341 7.2 73 4.4 102360 94
2005-03-07 15:17 51°36.179 3°24.297 6.3 72 4.4 102370 94
2005-03-07 15:18 51°36.177 3°24.267 6.6 71 4.4 102370 94
2005-03-07 15:19 51°36.174 3°24.245 7.5 88 4.4 102370 94
2005-03-07 15:20 51°36.17 3°24.227 7 97 4.4 102370 93
2005-03-07 15:21 51°36.167 3°24.21 7.2 113 4.5 102370 94
2005-03-07 15:22 51°36.163 3°24.195 6.6 113 4.5 102370 93
2005-03-07 15:23 51°36.159 3°24.176 6.1 118 4.5 102370 93
2005-03-07 15:24 51°36.155 3°24.156 7.5 112 4.5 102370 93
2005-03-07 15:25 51°36.142 3°24.118 7.4 104 4.5 102370 93
2005-03-07 15:26 51°36.123 3°24.058 7.7 105 4.5 102370 93
2005-03-07 15:27 51°36.097 3°23.998 6.8 113 4.5 102370 93
2005-03-07 15:28 51°36.07 3°23.949 7 116 4.5 102380 93
2005-03-07 15:29 51°36.044 3°23.904 5.8 122 4.5 102370 93
2005-03-07 15:30 51°36.014 3°23.865 5.6 130 4.5 102380 93
2005-03-07 15:31 51°35.986 3°23.833 6.7 127 4.5 102380 93
2005-03-07 15:32 51°35.957 3°23.805 6.7 133 4.5 102380 93
2005-03-07 15:33 51°35.926 3°23.783 6.6 226 4.5 102380 94
2005-03-07 15:34 51°35.897 3°23.767 6.3 146 4.5 102370 94
2005-03-07 15:35 51°35.868 3°23.757 6.1 145 4.5 102370 94
2005-03-07 15:36 51°35.835 3°23.738 5.2 127 4.5 102370 94
2005-03-07 15:37 51°35.781 3°23.667 6.6 82 4.5 102370 94
2005-03-07 15:38 51°35.633 3°23.473 9.4 67 4.5 102360 94
2005-03-07 15:39 51°35.458 3°23.251 10.1 58 4.5 102360 94
2005-03-07 15:40 51°35.33 3°22.959 12.9 44 4.5 102350 94
2005-03-07 15:41 51°35.323 3°22.572 13 29 4.5 102340 94
2005-03-07 15:42 51°35.35 3°22.202 13 29 4.5 102340 94
2005-03-07 15:43 51°35.339 3°21.819 14 38 4.5 102350 94
2005-03-07 15:44 51°35.323 3°21.438 12.4 34 4.5 102340 94
2005-03-07 15:45 51°35.302 3°21.063 13.6 39 4.5 102330 94
2005-03-07 15:46 51°35.276 3°20.673 13.2 35 4.6 102330 94
2005-03-07 15:47 51°35.248 3°20.287 13.1 36 4.6 102340 94
2005-03-07 15:48 51°35.19 3°19.923 13 48 4.6 102340 94
2005-03-07 15:49 51°35.096 3°19.569 12.7 47 4.6 102330 94
2005-03-07 15:50 51°35.003 3°19.223 12.2 43 4.6 102340 94
2005-03-07 15:51 51°34.892 3°18.891 13.1 49 4.6 102340 94
2005-03-07 15:52 51°34.778 3°18.543 12.1 51 4.6 102340 94
2005-03-07 15:53 51°34.668 3°18.21 12.2 54 4.6 102350 94
2005-03-07 15:54 51°34.559 3°17.864 11.7 47 4.6 102340 94
2005-03-07 15:55 51°34.449 3°17.528 11.9 48 4.6 102350 94
2005-03-07 15:56 51°34.34 3°17.192 11.1 47 4.6 102340 94
2005-03-07 15:57 51°34.236 3°16.871 13.7 50 4.6 102350 95
2005-03-07 15:58 51°34.13 3°16.53 11.1 42 4.6 102340 95
2005-03-07 15:59 51°34.02 3°16.186 12.3 49 4.6 102360 95
2005-03-07 16:00 51°33.912 3°15.853 12.8 54 4.6 102340 95
2005-03-07 16:01 51°33.793 3°15.522 11.7 48 4.6 102350 95
2005-03-07 16:02 51°33.672 3°15.195 11.6 49 4.6 102350 95
2005-03-07 16:03 51°33.546 3°14.871 11.1 49 4.6 102350 95
2005-03-07 16:04 51°33.419 3°14.556 12.6 50 4.6 102350 95
2005-03-07 16:05 51°33.286 3°14.231 11.5 41 4.6 102360 96
2005-03-07 16:06 51°33.158 3°13.905 11.7 47 4.6 102350 96
2005-03-07 16:07 51°33.027 3°13.584 12.2 48 4.6 102340 96
2005-03-07 16:08 51°32.901 3°13.276 12.9 48 4.6 102330 96
2005-03-07 16:09 51°32.767 3°12.941 11.8 42 4.6 102330 96
2005-03-07 16:10 51°32.638 3°12.63 11.8 45 4.6 102320 96
2005-03-07 16:11 51°32.507 3°12.3 13.1 58 4.6 102330 97
2005-03-07 16:12 51°32.375 3°11.982 12.4 53 4.6 102330 97
2005-03-07 16:13 51°32.242 3°11.656 13.7 52 4.6 102330 97
2005-03-07 16:14 51°32.112 3°11.334 12.1 47 4.6 102330 97
2005-03-07 16:15 51°31.983 3°11.021 12.4 50 4.6 102340 97
2005-03-07 16:16 51°31.848 3°10.701 12.4 46 4.6 102360 97
2005-03-07 16:17 51°31.717 3°10.375 12.3 53 4.6 102340 97
2005-03-07 16:18 51°31.575 3°10.071 11.9 57 4.6 102340 97
2005-03-07 16:19 51°31.427 3°9.752 12 55 4.6 102350 97
2005-03-07 16:20 51°31.283 3°9.456 12 52 4.6 102350 97
2005-03-07 16:21 51°31.138 3°9.146 12 52 4.6 102350 97
2005-03-07 16:22 51°30.989 3°8.83 11.6 50 4.6 102350 97
2005-03-07 16:23 51°30.847 3°8.524 11.6 48 4.6 102340 97
2005-03-07 16:24 51°30.705 3°8.216 11.4 50 4.6 102350 97
2005-03-07 16:25 51°30.559 3°7.909 12.6 53 4.6 102350 97
2005-03-07 16:26 51°30.414 3°7.602 11.6 43 4.6 102350 97
2005-03-07 16:27 51°30.269 3°7.291 12 50 4.6 102360 97
2005-03-07 16:28 51°30.128 3°6.976 12.7 63 4.6 102370 97
2005-03-07 16:29 51°29.986 3°6.677 13.4 59 4.7 102360 97
2005-03-07 16:30 51°29.842 3°6.365 12.4 55 4.6 102370 97
2005-03-07 16:31 51°29.691 3°6.049 11.5 56 4.7 102370 97
2005-03-07 16:32 51°29.547 3°5.741 12 58 4.7 102370 97
2005-03-07 16:33 51°29.4 3°5.43 11.7 58 4.7 102370 97
2005-03-07 16:34 51°29.256 3°5.123 12.5 60 4.7 102370 97
2005-03-07 16:35 51°29.111 3°4.807 11.8 55 4.7 102380 97
2005-03-07 16:36 51°28.972 3°4.497 11 59 4.7 102380 97
2005-03-07 16:37 51°28.823 3°4.182 12.2 69 4.7 102380 97
2005-03-07 16:38 51°28.677 3°3.865 11 64 4.7 102390 97
2005-03-07 16:39 51°28.534 3°3.558 11.8 56 4.7 102390 97
2005-03-07 16:40 51°28.384 3°3.233 11.4 65 4.7 102380 97
2005-03-07 16:41 51°28.238 3°2.917 10.8 66 4.7 102390 97
2005-03-07 16:42 51°28.088 3°2.598 10.1 68 4.8 102390 97
2005-03-07 16:43 51°27.945 3°2.278 13.1 62 4.7 102390 97
2005-03-07 16:44 51°27.822 3°1.939 11.4 52 4.7 102380 97
2005-03-07 16:45 51°27.7 3°1.586 13.2 55 4.7 102380 97
2005-03-07 16:46 51°27.577 3°1.24 13.4 55 4.7 102380 96
2005-03-07 16:47 51°27.454 3°0.898 13.6 55 4.7 102380 96
2005-03-07 16:48 51°27.325 3°0.544 11 51 4.7 102380 96
2005-03-07 16:49 51°27.197 3°0.194 12.9 55 4.7 102380 96
2005-03-07 16:50 51°27.075 2°59.859 12.7 50 4.7 102390 96
2005-03-07 16:51 51°26.944 2°59.516 12.1 50 4.7 102380 96
2005-03-07 16:52 51°26.79 2°59.21 11.4 64 4.7 102380 96
2005-03-07 16:53 51°26.614 2°58.918 10.4 59 4.8 102390 96
2005-03-07 16:54 51°26.442 2°58.627 10.7 57 4.8 102390 96
2005-03-07 16:55 51°26.246 2°58.389 10.5 69 4.7 102400 96
2005-03-07 16:56 51°26.037 2°58.17 8.1 74 4.7 102400 96
2005-03-07 16:57 51°25.831 2°57.952 8.3 67 4.7 102400 96
2005-03-07 16:58 51°25.62 2°57.732 8.6 77 4.7 102420 96
2005-03-07 16:59 51°25.411 2°57.531 7.9 66 4.7 102420 96
2005-03-07 17:00 51°25.199 2°57.322 8.7 81 4.7 102420 96
2005-03-07 17:01 51°24.984 2°57.139 7.2 84 4.7 102410 95
2005-03-07 17:02 51°24.768 2°56.955 7.7 79 4.7 102410 95
2005-03-07 17:03 51°24.545 2°56.76 7.9 81 4.7 102420 95
2005-03-07 17:04 51°24.328 2°56.569 8.5 82 4.6 102420 95
2005-03-07 17:05 51°24.11 2°56.382 7.6 79 4.6 102410 95
2005-03-07 17:06 51°23.892 2°56.188 7.4 79 4.6 102420 95
2005-03-07 17:07 51°23.67 2°55.994 8.4 82 4.6 102430 95
2005-03-07 17:08 51°23.457 2°55.816 7 76 4.6 102430 95
2005-03-07 17:09 51°23.226 2°55.641 7.1 89 4.6 102430 95
2005-03-07 17:10 51°22.998 2°55.492 6.7 82 4.6 102440 95
2005-03-07 17:11 51°22.758 2°55.34 7.5 83 4.6 102440 95
2005-03-07 17:12 51°22.526 2°55.202 8.9 86 4.6 102440 95
2005-03-07 17:13 51°22.292 2°55.068 7.5 81 4.6 102440 95
2005-03-07 17:14 51°22.06 2°54.941 7.3 88 4.6 102450 95
2005-03-07 17:15 51°21.826 2°54.805 8.1 82 4.5 102450 95
2005-03-07 17:16 51°21.589 2°54.667 6.2 80 4.6 102450 95
2005-03-07 17:17 51°21.362 2°54.531 8.4 84 4.5 102440 95
2005-03-07 17:18 51°21.135 2°54.37 6.5 78 4.6 102440 95
2005-03-07 17:19 51°20.908 2°54.21 6.4 74 4.5 102440 95
2005-03-07 17:20 51°20.688 2°54.06 7.5 81 4.5 102450 95
2005-03-07 17:21 51°20.453 2°53.891 8.1 82 4.5 102460 95
2005-03-07 17:22 51°20.224 2°53.732 7.2 72 4.5 102460 95
2005-03-07 17:23 51°19.993 2°53.563 7.6 82 4.5 102460 95
2005-03-07 17:24 51°19.767 2°53.406 8.1 91 4.5 102450 95
2005-03-07 17:25 51°19.536 2°53.25 9.9 84 4.5 102450 95
2005-03-07 17:26 51°19.306 2°53.098 6 76 4.5 102450 95
2005-03-07 17:27 51°19.079 2°52.949 6.5 78 4.5 102460 95
2005-03-07 17:28 51°18.847 2°52.791 7.3 78 4.5 102460 95
2005-03-07 17:29 51°18.628 2°52.645 6.5 75 4.5 102460 95
2005-03-07 17:30 51°18.395 2°52.481 8.7 90 4.5 102460 95
2005-03-07 17:31 51°18.161 2°52.404 7.2 84 4.5 102470 95
2005-03-07 17:32 51°17.921 2°52.355 6.6 84 4.5 102480 95
2005-03-07 17:33 51°17.678 2°52.295 6.2 89 4.5 102480 96
2005-03-07 17:34 51°17.433 2°52.234 5.9 100 4.4 102490 96
2005-03-07 17:35 51°17.184 2°52.188 5.6 100 4.5 102480 96
2005-03-07 17:36 51°16.948 2°52.25 4.1 116 4.5 102490 96
2005-03-07 17:37 51°16.719 2°52.356 1.7 153 4.5 102500 96
2005-03-07 17:38 51°16.505 2°52.499 2.5 141 4.5 102490 96
2005-03-07 17:39 51°16.275 2°52.633 2.5 125 4.5 102490 96
2005-03-07 17:40 51°16.053 2°52.746 2.7 119 4.5 102490 96
2005-03-07 17:41 51°15.831 2°52.857 2.7 112 4.5 102500 96
2005-03-07 17:42 51°15.608 2°52.979 1.5 132 4.5 102490 96
2005-03-07 17:43 51°15.396 2°53.119 0.8 132 4.4 102500 96
2005-03-07 17:44 51°15.195 2°53.283 0.2 128 4.4 102500 96
2005-03-07 17:45 51°15.014 2°53.493 1.3 227 4.4 102500 96
2005-03-07 17:46 51°14.853 2°53.721 3 275 4.5 102510 97
2005-03-07 17:47 51°14.735 2°53.987 3.7 267 4.5 102510 97
2005-03-07 17:48 51°14.625 2°54.265 4 276 4.4 102510 97
2005-03-07 17:49 51°14.525 2°54.547 5.2 282 4.4 102510 97
2005-03-07 17:50 51°14.437 2°54.834 4.6 271 4.4 102500 97
2005-03-07 17:51 51°14.342 2°55.118 3.8 275 4.4 102500 97
2005-03-07 17:52 51°14.22 2°55.339 0.5 252 4.4 102510 97
2005-03-07 17:53 51°14.083 2°55.455 2.5 145 4.4 102500 97
2005-03-07 17:54 51°13.938 2°55.553 2.5 165 4.4 102510 97
2005-03-07 17:55 51°13.817 2°55.645 2.4 193 4.5 102510 97
2005-03-07 17:56 51°13.736 2°55.752 3.4 215 4.6 102510 97
2005-03-07 17:57 51°13.667 2°55.899 4.6 231 4.5 102510 97
2005-03-07 17:58 51°13.62 2°56.027 3.3 240 4.5 102510 97
2005-03-07 17:59 51°13.599 2°56.093 3.7 201 4.5 102510 97
2005-03-07 18:00 51°13.594 2°56.1 3.9 209 4.6 102510 97
2005-03-07 18:01 51°13.592 2°56.11 4.1 226 4.6 102510 97
2005-03-07 18:02 51°13.592 2°56.11 4 218 4.6 102510 97
2005-03-07 18:03 51°13.594 2°56.102 5.1 224 4.5 102500 97